(100095) = 1993 FN13 = 2000 CP41

Discovered at La Silla on 1993-03-17 by UESAC.

Orbit

Orbit type: Main Belt

Note: WebGL enabled browser required.

epoch2023-09-13.0
epoch JD2460200.5
perihelion date2020-02-18.16409
perihelion JD2458897.66409
argument of perihelion (°)120.68856
ascending node (°)153.60657
inclination (°)6.73015
eccentricity0.1203085
perihelion distance (AU)2.1172331
Tisserand w.r.t. Jupiter3.5
ΔV w.r.t. Earth (km/sec)9.3
semimajor axis (AU)2.4067904
mean anomaly (°)343.90315
mean daily motion (°/day)0.26396510
aphelion distance (AU)2.696
period (years)3.73
P-vector [x]0.07752814
P-vector [y]-0.95012353
P-vector [z]-0.30208386
Q-vector [x]0.99562813
Q-vector [y]0.08961536
Q-vector [z]-0.02633858
absolute magnitude16.07
phase slope0.15
uncertainty0
referenceMPEC 2024-A26
observations used964
oppositions17
arc length (days)11057
first opposition used1993
last opposition used2023
residual rms (arc-secs)0.75
perturbers coarse indicatorM-v
perturbers precise indicator003Ek
first observation date used1993-03-17.0
last observation date used2023-06-25.0
computer nameMPCLINUX
JD of orbit computation2456731.595894
perihelion JD uncertainty (days)1.1982E-04
argument of perihelion uncertainty (°)6.6802E-05
ascending node uncertainty (°)5.7018E-05
inclination uncertainty (°)6.0132E-06
eccentricity uncertainty 4.9377E-08
perihelion distance uncertainty (AU)1.1892E-07
Minimum Orbit Intersection Distances (in AU)
for orbit epoch: 2460200.5, reference: E2023-Y63
Mercury1.66348
Venus1.39781
Earth1.10974
Mars0.66478
Jupiter2.41364
Saturn6.37146
Uranus15.9178
Neptune27.2692

Observations

988 total observations over interval: 1993 03 17.19062 – 2023 06 25.175980
These data are available for download (format description).

Date (UT) J2000 RA J2000 Dec Magn Location Ref
1993 03 17.19062 12 41 46.32 +01 45 05.5 19.4   809 – European Southern Observatory, La Silla MPC 23444
1993 03 18.21840 12 40 58.94 +01 54 13.1 18.7   809 – European Southern Observatory, La Silla MPC 23444
1993 03 23.20451 12 36 57.96 +02 38 45.1 17.8   809 – European Southern Observatory, La Silla MPC 23444
2000 02 02.31712 08 53 44.93 +13 22 44.3 19.1   704 – Lincoln Laboratory ETS, New Mexico MPS 10370
2000 02 02.33104 08 53 44.15 +13 22 50.0 19.7   704 – Lincoln Laboratory ETS, New Mexico MPS 10370
2000 02 02.34502 08 53 43.25 +13 22 55.9 19.7   704 – Lincoln Laboratory ETS, New Mexico MPS 10370
2000 02 02.35907 08 53 42.39 +13 23 01.5 19.8   704 – Lincoln Laboratory ETS, New Mexico MPS 10370
2000 02 06.16291 08 49 58.52 +13 47 38.7 19.0   704 – Lincoln Laboratory ETS, New Mexico MPS 10370
2000 02 06.17790 08 49 57.56 +13 47 46.2 19.3   704 – Lincoln Laboratory ETS, New Mexico MPS 10370
2000 02 06.19286 08 49 56.68 +13 47 52.2 19.1   704 – Lincoln Laboratory ETS, New Mexico MPS 10370
2000 02 06.22291 08 49 54.71 +13 48 03.7 19.2   704 – Lincoln Laboratory ETS, New Mexico MPS 10370
2002 11 16.25749 04 09 24.47 +10 10 18.0 19.7   644 – Palomar Mountain/NEAT MPS 90354
2002 11 16.33807 04 09 19.59 +10 10 01.2 20.2   644 – Palomar Mountain/NEAT MPS 90354
2002 11 16.40154 04 09 15.67 +10 09 47.4 19.9   644 – Palomar Mountain/NEAT MPS 90354
2004 02 11.44962 11 09 06.50 +06 04 14.8 19.2   644 – Palomar Mountain/NEAT MPS 98532
2004 02 11.47459 11 09 05.46 +06 04 24.9 19.3   644 – Palomar Mountain/NEAT MPS 98532
2004 02 11.49594 11 09 04.65 +06 04 34.3 19.5   644 – Palomar Mountain/NEAT MPS 98532
2004 02 26.32682 10 57 34.69 +08 02 39.1 19.5   704 – Lincoln Laboratory ETS, New Mexico MPS 99926
2004 02 26.33788 10 57 34.04 +08 02 44.4 19.8   704 – Lincoln Laboratory ETS, New Mexico MPS 99926
2004 02 26.36001 10 57 32.84 +08 02 56.2 19.4   704 – Lincoln Laboratory ETS, New Mexico MPS 99926
2004 02 26.37113 10 57 32.23 +08 03 02.0 19.8   704 – Lincoln Laboratory ETS, New Mexico MPS 99926
2004 03 15.22904 10 41 48.68 +10 32 02.0 19.2 C 704 – Lincoln Laboratory ETS, New Mexico MPS 294068
2004 03 15.24012 10 41 48.15 +10 32 06.6 19.1 C 704 – Lincoln Laboratory ETS, New Mexico MPS 294068
2004 03 15.24286 10 41 48.06 +10 32 09.6 20.2 V 703 – Catalina Sky Survey MPS 100953
2004 03 15.25767 10 41 47.29 +10 32 16.6 19.4 V 703 – Catalina Sky Survey MPS 100953
2004 03 15.26210 10 41 47.00 +10 32 16.9 19.5 C 704 – Lincoln Laboratory ETS, New Mexico MPS 294068
2004 03 15.27244 10 41 46.49 +10 32 23.0 19.1 V 703 – Catalina Sky Survey MPS 100953
2004 03 15.27308 10 41 46.44 +10 32 23.7 18.9 C 704 – Lincoln Laboratory ETS, New Mexico MPS 294068
2004 03 15.28735 10 41 45.74 +10 32 30.6 19.3 V 703 – Catalina Sky Survey MPS 100953
2004 03 19.29423 10 38 33.93 +11 02 15.3 20.0   704 – Lincoln Laboratory ETS, New Mexico MPS 101941
2004 03 19.31595 10 38 32.80 +11 02 24.3 19.8   704 – Lincoln Laboratory ETS, New Mexico MPS 101941
2004 03 19.32683 10 38 32.30 +11 02 28.4 20.0   704 – Lincoln Laboratory ETS, New Mexico MPS 101941
2004 03 22.30057 10 36 20.50 +11 23 01.0 20.3   704 – Lincoln Laboratory ETS, New Mexico MPS 101941
2004 03 22.31191 10 36 19.86 +11 23 06.3 19.8   704 – Lincoln Laboratory ETS, New Mexico MPS 101941
2004 03 22.32313 10 36 19.42 +11 23 11.7 20.1   704 – Lincoln Laboratory ETS, New Mexico MPS 101941
2004 03 22.33425 10 36 18.94 +11 23 15.0 19.5   704 – Lincoln Laboratory ETS, New Mexico MPS 101941
2004 03 26.25197 10 33 41.66 +11 48 03.8 19.8 V 703 – Catalina Sky Survey MPS 102853
2004 03 26.26105 10 33 41.34 +11 48 06.7 20.4 V 703 – Catalina Sky Survey MPS 102853
2004 03 26.27010 10 33 41.04 +11 48 10.1 20.4 V 703 – Catalina Sky Survey MPS 102853
2004 03 26.27914 10 33 40.63 +11 48 13.9 20.4 V 703 – Catalina Sky Survey MPS 102853
2004 03 28.27805 10 32 28.35 +11 59 48.1 19.5   704 – Lincoln Laboratory ETS, New Mexico MPS 102853
2004 03 28.28848 10 32 27.91 +11 59 52.1 19.8   704 – Lincoln Laboratory ETS, New Mexico MPS 102853
2004 03 28.29891 10 32 27.54 +11 59 56.0 19.9   704 – Lincoln Laboratory ETS, New Mexico MPS 102853
2004 03 28.30939 10 32 27.26 +11 59 59.1 19.4   704 – Lincoln Laboratory ETS, New Mexico MPS 102853
2004 03 29.11369 10 32 00.11 +12 04 26.2 19.8 V 691 – Steward Observatory, Kitt Peak-Spacewatch MPS 102853
2004 03 29.14152 10 31 59.14 +12 04 35.4 19.7 V 691 – Steward Observatory, Kitt Peak-Spacewatch MPS 102853
2004 03 29.16889 10 31 58.18 +12 04 44.3 19.8 V 691 – Steward Observatory, Kitt Peak-Spacewatch MPS 102853
2005 06 06.40792 22 02 13.34 -07 11 37.3 20.1 V 703 – Catalina Sky Survey MPS 135863
2005 06 06.41682 22 02 13.84 -07 11 35.3 20.2 V 703 – Catalina Sky Survey MPS 135863
2005 06 06.42553 22 02 14.13 -07 11 34.1 20.6 V 703 – Catalina Sky Survey MPS 135863
2005 06 06.43432 22 02 14.64 -07 11 33.1 20.1 V 703 – Catalina Sky Survey MPS 135863
2005 08 02.27635 22 07 01.15 -08 46 25.1 18.9   704 – Lincoln Laboratory ETS, New Mexico MPS 138790
2005 08 02.30000 22 07 00.14 -08 46 36.9 19.0   704 – Lincoln Laboratory ETS, New Mexico MPS 138790
2005 08 02.31182 22 06 59.65 -08 46 41.8 19.4   704 – Lincoln Laboratory ETS, New Mexico MPS 138790
2005 08 02.32365 22 06 59.18 -08 46 46.7 18.8   704 – Lincoln Laboratory ETS, New Mexico MPS 138790
2005 08 06.22239 22 04 13.05 -09 16 58.7 18.3   704 – Lincoln Laboratory ETS, New Mexico MPS 139194
2005 08 06.23425 22 04 12.50 -09 17 04.8 18.9   704 – Lincoln Laboratory ETS, New Mexico MPS 139194
2005 08 06.24609 22 04 11.90 -09 17 10.3 19.2   704 – Lincoln Laboratory ETS, New Mexico MPS 139194
2005 08 06.25787 22 04 11.43 -09 17 15.3 19.0   704 – Lincoln Laboratory ETS, New Mexico MPS 139194
2005 08 06.42875 22 04 03.37 -09 18 38.3 18.6   644 – Palomar Mountain/NEAT MPS 139541
2005 08 06.43898 22 04 02.90 -09 18 42.9 18.7   644 – Palomar Mountain/NEAT MPS 139541
2005 08 06.45047 22 04 02.34 -09 18 48.6 18.5   644 – Palomar Mountain/NEAT MPS 139541
2005 08 22.31641 21 51 06.56 -11 34 49.2 17.9   644 – Palomar Mountain/NEAT MPS 139541
2005 08 22.33813 21 51 05.45 -11 35 00.6 17.9   644 – Palomar Mountain/NEAT MPS 139541
2005 08 22.35970 21 51 04.31 -11 35 11.9 18.0   644 – Palomar Mountain/NEAT MPS 139541
2005 08 26.26998 21 47 52.63 -12 08 52.3 18.0 R 699 – Lowell Observatory-LONEOS MPS 139541
2005 08 26.30133 21 47 51.05 -12 09 08.9   699 – Lowell Observatory-LONEOS MPS 139541
2005 08 26.33922 21 47 49.13 -12 09 27.7   699 – Lowell Observatory-LONEOS MPS 139541
2005 08 27.28846 21 47 03.98 -12 17 30.1 18.1   644 – Palomar Mountain/NEAT MPS 139975
2005 08 27.31533 21 47 02.62 -12 17 43.7 18.0   644 – Palomar Mountain/NEAT MPS 139975
2005 08 27.35240 21 47 00.77 -12 18 02.4 18.3   644 – Palomar Mountain/NEAT MPS 139975
2005 08 27.66439 21 46 45.91 -12 20 31.6 18.2 V E12 – Siding Spring Survey MPS 139975
2005 08 27.67220 21 46 45.44 -12 20 35.3 18.2 V E12 – Siding Spring Survey MPS 139975
2005 08 27.68004 21 46 45.12 -12 20 39.6 18.6 V E12 – Siding Spring Survey MPS 139975
2005 08 27.68782 21 46 44.72 -12 20 44.3 18.3 V E12 – Siding Spring Survey MPS 139975
2005 08 29.19088 21 45 35.09 -12 33 22.0 18.7   704 – Lincoln Laboratory ETS, New Mexico MPS 139975
2005 08 29.20215 21 45 34.55 -12 33 27.7 19.4   704 – Lincoln Laboratory ETS, New Mexico MPS 139975
2005 08 29.21342 21 45 33.96 -12 33 32.9 19.2   704 – Lincoln Laboratory ETS, New Mexico MPS 139975
2005 08 29.25229 21 45 32.12 -12 33 52.0 18.2 R 699 – Lowell Observatory-LONEOS MPS 139975
2005 08 29.29240 21 45 30.18 -12 34 13.0   699 – Lowell Observatory-LONEOS MPS 139975
2005 08 29.31251 21 45 29.19 -12 34 23.2   699 – Lowell Observatory-LONEOS MPS 139975
2005 09 05.23049 21 40 34.28 -13 28 45.5 18.1 V 703 – Catalina Sky Survey MPS 140900
2005 09 05.23899 21 40 33.99 -13 28 48.1 18.6 V 703 – Catalina Sky Survey MPS 140900
2005 09 05.25766 21 40 33.20 -13 28 57.6 18.7 V 703 – Catalina Sky Survey MPS 140900
2005 09 05.26633 21 40 32.84 -13 29 01.9 18.7 V 703 – Catalina Sky Survey MPS 140900
2005 09 06.12514 21 40 00.36 -13 35 19.0 18.2 R 699 – Lowell Observatory-LONEOS MPS 140900
2005 09 06.14148 21 39 59.70 -13 35 26.6   699 – Lowell Observatory-LONEOS MPS 140900
